Regional Weather Roundup
Issued by NWS

Home | Current Version | Previous Version | Text Only | Print | Product List | Glossary On
Versions: 1 2 3 4 5 6 7 8 9 10 11 12 13 14 15 16 17 18 19 20 21 22 23 24 25 26 27 28 29 30 31 32 33 34 35 36 37 38 39 40 41 42 43 44 45 46 47 48 49 50
000
ASUS43 KMPX 262001
RWRMN
WEATHER ROUNDUP FOR MINNESOTA
NATIONAL WEATHER SERVICE TWIN CITIES/CHANHASSEN MN
200 PM CST FRI DEC 26 2014


NOTE: "FAIR" INDICATES FEW OR NO CLOUDS BELOW 12,000 FEET WITH NO
SIGNIFICANT WEATHER AND/OR OBSTRUCTIONS TO VISIBILITY. N/A MEANS
CURRENT SKY AND/OR WEATHER CONDITIONS ARE NOT AVAILABLE.

MNZ060>063-068>070-262100-
   Twin Cities Metro

CITY           SKY/WX    TMP DP  RH WIND       PRES   REMARKS
TWIN CITIES    CLOUDY    32  26  78 N16       30.01S WCI  21
ST PAUL        CLOUDY    32  27  81 N14       30.02S WCI  22
CRYSTAL        CLOUDY    33  27  78 N13       30.01F WCI  24
BLAINE         CLOUDY    34  30  86 N13       30.01F WCI  25
LAKEVILLE      CLOUDY    30  27  86 N7        30.00R WCI  23
EDEN PRAIRIE   CLOUDY    32  26  78 N10       30.01R WCI  24
SOUTH ST PAUL  CLOUDY    32  28  84 N9        30.01R WCI  25
LAKE ELMO      CLOUDY    32  30  93 N10       30.01S WCI  24
$$
MNZ001>005-007-008-013>017-022>024-027-028-262100-
   Northwest Minnesota

CITY           SKY/WX    TMP DP  RH WIND       PRES   REMARKS
BEMIDJI        CLOUDY    23  16  73 N8        30.09S WCI  14
HALLOCK        FLURRIES  16  10  79 NW12      30.18S WCI   3
ROSEAU         FLURRIES  21  16  79 W8        30.13S WCI  12
WARROAD        FLURRIES  21  16  79 NW7       30.12S WCI  13
THIEF RVR FALL CLOUDY    19  16  86 NW12      30.14S WCI   7
CROOKSTON      CLOUDY    19  16  86 N14       30.17F WCI   6
FOSSTON        CLOUDY    21  16  79 NW9       30.11F WCI  11
DETROIT LAKES  CLOUDY    25  21  86 N7        30.10S WCI  17
MOORHEAD       CLOUDY    25  21  86 N13       30.15S WCI  13
PARK RAPIDS    CLOUDY    26  18  71 N9        30.06S WCI  17
MAHNOMEN       LGT SNOW  23  18  82 N13       30.10F WCI  11
$$
MNZ006-009>011-018-025>026-262100-
   North Central Minnesota

CITY           SKY/WX    TMP DP  RH WIND       PRES   REMARKS
BAUDETTE       CLOUDY    20  13  74 N10       30.10F WCI   9
FLAG ISLAND    FLURRIES  16  12  86 N10       30.12S WCI   3
INTL FALLS     CLOUDY    24  17  74 NW9       30.08R WCI  14
WASKISH        CLOUDY    23  18  80 CALM      30.10S
BIG FORK       CLOUDY    25  18  74 N7        30.07S WCI  17
LONGVILLE      CLOUDY    25  19  80 N6        30.07S WCI  18
GRAND RAPIDS   PTSUNNY   25  18  74 N9        30.04S WCI  15
CRANE LAKE     CLOUDY    25  21  86 NW3       30.07S
ORR            CLOUDY    25  18  74 NW7       30.03S WCI  17
COOK           CLOUDY    25  19  80 NW6       30.05R WCI  18
WALKER         CLOUDY    23  16  74 N7        30.07S WCI  14
$$
MNZ012-019>021-037-262100-
   Northeast Minnesota

CITY           SKY/WX    TMP DP  RH WIND       PRES   REMARKS
DULUTH         FLURRIES  30  21  69 N7        30.01R WCI  23
ELY            CLOUDY    27  23  86 NW6       30.01S WCI  20
HIBBING        CLOUDY    28  20  71 N9        30.04S WCI  19
EVELETH        MOSUNNY   28  23  80 NW8       30.03S WCI  20
DULUTH HARBOR  CLOUDY    34  27  75 CALM      30.06R
TWO HARBORS    CLOUDY    34  25  69 N6        30.01R WCI  29
SILVER BAY     CLOUDY    32  21  64 N3        30.00R
GRAND MARAIS     N/A     34  23  64 N8        30.02S WCI  27
G MARAIS ARPRT CLOUDY    27  19  74 NW6       29.97S WCI  20
$$
MNZ029>031-032-039>041-046>048-054>057-064-262100-
   West Central Minnesota

CITY           SKY/WX    TMP DP  RH WIND       PRES   REMARKS
FERGUS FALLS   CLOUDY    25  18  74 N14G20    30.15R WCI  13
WHEATON        CLOUDY    23  18  80 NW16      30.14F WCI  10
MORRIS         MOSUNNY   27  21  80 N13       30.09S WCI  16
ALEXANDRIA     CLOUDY    26  20  77 N9        30.07F WCI  17
ELBOW LAKE     CLOUDY    25  19  80 N9        30.10S WCI  15
WADENA         CLOUDY    25  18  74 N8        30.07S WCI  16
GLENWOOD       CLOUDY    27  21  80 N8        30.07S WCI  18
APPLETON       CLOUDY    27  23  86 N12       30.09F WCI  16
BENSON         CLOUDY    28  21  74 N10       30.09R WCI  19
ORTONVILLE     CLOUDY    25  19  80 N14       30.11S WCI  13
MADISON        CLOUDY    28  27  93 N15       30.09F FOG     WCI  17
WILLMAR        CLOUDY    28  23  80 N10       30.07S WCI  19
$$
MNZ033>034-036-042>043-049>051-058-059-262100-
   Central Minnesota

CITY           SKY/WX    TMP DP  RH WIND       PRES   REMARKS
ST CLOUD       CLOUDY    33  22  63 N9        30.04F WCI  25
SAUK CENTRE    CLOUDY    27  21  77 N6        30.07S WCI  20
PAYNESVILLE    CLOUDY    26  22  84 NW6       30.06S WCI  19
AITKIN         CLOUDY    30  21  69 N6        30.04R WCI  24
PINE RIVER     PTSUNNY   27  19  74 N10       30.09S WCI  17
BRAINERD       CLOUDY    28  19  69 N10       30.06S WCI  19
STAPLES        CLOUDY    25  19  80 NW7       30.07R WCI  17
LONG PRAIRIE   CLOUDY    27  21  80 NW9       30.07R WCI  17
LITTLE FALLS   CLOUDY    28  21  74 N5        30.07R WCI  23
LITCHFIELD     CLOUDY    30  27  86 N10       30.04F WCI  21
BUFFALO        CLOUDY    31  26  81 N9        30.04S WCI  22
MAPLE LAKE     CLOUDY    31  28  86 NW9       30.05S WCI  23
$$
MNZ037-044-045-052-053-262100-
   East Central Minnesota

CITY           SKY/WX    TMP DP  RH WIND       PRES   REMARKS
PRINCETON      CLOUDY    30  25  80 N7        30.05S WCI  23
MORA           CLOUDY    32  25  74 N7        30.06R WCI  26
CAMBRIDGE      CLOUDY    32  23  69 NW8       30.02S WCI  25
RUSH CITY      CLOUDY    31  26  82 N6        30.04R WCI  25
MOOSE LAKE     CLOUDY    30  23  74 CALM      30.03R
HINCKLEY       CLOUDY    32  27  80 CALM      30.05R
CLOQUET        CLOUDY    28  21  74 NW7       30.03R WCI  21
MCGREGOR       CLOUDY    30  23  74 N8        30.05R WCI  23
$$
MNZ071>073-080-081-089-090-097-098-262100-
   Southwest Minnesota

CITY           SKY/WX    TMP DP  RH WIND       PRES   REMARKS
MONTEVIDEO     CLOUDY    27  25  93 N15       30.08F WCI  15
GRANITE FALLS  CLOUDY    28  24  86 NW12G20   30.07F WCI  18
CANBY          CLOUDY    26  24  89 N13       30.09F FOG     WCI  15
MARSHALL       CLOUDY    27  21  80 N17       30.05F WCI  14
REDWOOD FALLS  CLOUDY    30  24  78 N13       30.04F WCI  20
OLIVIA         CLOUDY    28  27  93 N15       30.04F WCI  17
PIPESTONE      CLOUDY    25  23  93 NE16      30.01S WCI  12
WINDOM         CLOUDY    28  27  93 N20       29.99F WCI  15
WORTHINGTON    CLOUDY    27 -20  12 N17       29.98F WCI  14
JACKSON        CLOUDY    30  28  93 N17G24    29.98F WCI  18
TRACY          CLOUDY    29  27  92 N14G20    30.02F WCI  18
SLAYTON        CLOUDY    26  25  96 N16       30.01F WCI  13
$$
MNZ065>067-074>077-082>085-091>093-262100-
   South Central Minnesota

CITY           SKY/WX    TMP DP  RH WIND       PRES   REMARKS
MANKATO        CLOUDY    30  25  80 N15       30.00S WCI  19
NEW ULM        CLOUDY    30  27  86 N7        30.02S WCI  23
FAIRMONT       CLOUDY    30  27  86 N15       29.98S WCI  19
GLENCOE        CLOUDY    32  29  88 N10       30.02R WCI  24
FARIBAULT      CLOUDY    32  28  86 N9        30.00R WCI  24
OWATONNA       PTSUNNY   32  28  86 N15       29.97F WCI  22
ALBERT LEA     CLOUDY    32  32 100 N12       29.95S FOG     WCI  23
$$
MNZ078>079-086>088-094>096-262100-
   Southeast Minnesota

CITY           SKY/WX    TMP DP  RH WIND       PRES   REMARKS
ROCHESTER      CLOUDY    33  30  88 N12       29.95R FOG     WCI  24
RED WING       CLOUDY    34  28  80 N5        29.98R WCI  30
STANTON        CLOUDY    33  29  87 N12       29.98R WCI  24
DODGE CENTER   CLOUDY    32  30  93 N13       29.95S FOG     WCI  22
WINONA         CLOUDY    36  32  87 N6        29.97R
AUSTIN         CLOUDY    32  30  93 N9G17     29.95S FOG     WCI  24
PRESTON        CLOUDY    32  30  94 N9        29.94R FOG     WCI  24
$$
ABBREVIATIONS USED IN REMARKS
   TC - TEMPERATURES IN CELSIUS
  WCI - WIND CHILL INDEX
   HX - HEAT INDEX
  VSB - VISIBILITY
$$



USA.gov is the U.S. government's official web portal to all federal, state and local government web resources and services.